Regional Weather Roundup
Issued by NWS

Home | Current Version | Previous Version | Graphics & Text | Print | Product List | Glossary Off
Versions: 1 2 3 4 5 6 7 8 9 10 11 12 13 14 15 16 17 18 19 20 21 22 23 24 25 26 27 28 29 30 31 32 33 34 35 36 37 38 39 40 41 42 43 44 45 46 47 48 49 50

000
ASUS43 KMPX 181310
RWRMN
WEATHER ROUNDUP FOR MINNESOTA
NATIONAL WEATHER SERVICE TWIN CITIES/CHANHASSEN MN
700 AM CST THU JAN 18 2018


NOTE: "FAIR" INDICATES FEW OR NO CLOUDS BELOW 12,000 FEET WITH NO
SIGNIFICANT WEATHER AND/OR OBSTRUCTIONS TO VISIBILITY. N/A MEANS
CURRENT SKY AND/OR WEATHER CONDITIONS ARE NOT AVAILABLE.

MNZ060>063-068>070-181400-
   Twin Cities Metro

CITY           SKY/WX    TMP DP  RH WIND       PRES   REMARKS
TWIN CITIES    FAIR      24  18  77 SW8       29.90R WCI  15
ST PAUL        FAIR      18  15  88 S6        29.92R WCI  10
CRYSTAL        FAIR      23  15  71 SW5       29.88S WCI  17
BLAINE         PTCLDY    23  18  80 SW7       29.87F WCI  15
LAKEVILLE      FAIR      21  18  86 SW7       29.90R WCI  13
EDEN PRAIRIE   FAIR      21  16  81 SW8       29.88S WCI  11
SOUTH ST PAUL  FAIR      19  15  85 CALM      29.90S
LAKE ELMO      FAIR      21  18  86 S7        29.90S WCI  13
$$
MNZ001>005-007-008-013>017-022>024-027-028-181400-
   Northwest Minnesota

CITY           SKY/WX    TMP DP  RH WIND       PRES   REMARKS
BEMIDJI        CLOUDY    31  24  74 W14       29.71S WCI  20
HALLOCK        CLOUDY    27  19  74 N7        29.75S WCI  19
ROSEAU         FAIR      25  18  74 NW9       29.71S WCI  15
WARROAD        CLOUDY    28  23  80 W6        29.70R WCI  22
THIEF RVR FALL CLOUDY    29  23  78 NW9       29.75S WCI  20
CROOKSTON      FAIR      19  16  86 W3        29.77S
FOSSTON        CLOUDY    25  18  74 SW3       29.75S
DETROIT LAKES  FAIR      30  23  74 W9        29.78S WCI  22
MOORHEAD       FAIR      25  18  74 SW8       29.81S WCI  16
PARK RAPIDS    FAIR      27  20  75 W12       29.73F WCI  17
MAHNOMEN       FAIR      23  18  81 W9        29.75S WCI  13
$$
MNZ006-009>011-018-025>026-181400-
   North Central Minnesota

CITY           SKY/WX    TMP DP  RH WIND       PRES   REMARKS
BAUDETTE       CLOUDY    28  24  85 NW16G24   29.66R WCI  16
FLAG ISLAND    CLOUDY    27  21  80 NW18G24   29.67R WCI  13
INTL FALLS     CLOUDY    32  28  85 W10       29.64R WCI  24
WASKISH        CLOUDY    30  27  86 W10G22    29.70R WCI  21
BIG FORK       CLOUDY    34  28  80 W5        29.67S WCI  30
LONGVILLE      FAIR      28  19  69 W5        29.72S WCI  23
GRAND RAPIDS   MOCLDY    31  22  69 VRB5      29.71S WCI  26
CRANE LAKE     CLOUDY    28  27  93 CALM      29.66R
ORR            CLOUDY    30  27  86 W6        29.63S WCI  24
COOK           CLOUDY    28  27  93 W7        29.66R WCI  21
WALKER         FAIR      31  21  67 W8        29.72R WCI  23
$$
MNZ012-019>021-037-181400-
   Northeast Minnesota

CITY           SKY/WX    TMP DP  RH WIND       PRES   REMARKS
DULUTH         CLOUDY    29  21  72 W15       29.68F WCI  18
ELY            LGT SNOW  27  25  93 SW7       29.64S WCI  19
HIBBING        CLOUDY    24  21  88 SW3       29.67F
EVELETH        CLOUDY    24  19  80 W5        29.68S WCI  18
DULUTH HARBOR  CLOUDY    28  21  74 SW13      29.73F WCI  18
TWO HARBORS    MOCLDY    27  21  80 SW5       29.67F WCI  21
SILVER BAY     CLOUDY    21  19  93 CALM      29.65S
GRAND MARAIS     N/A     25  21  85 CALM      29.67F
G MARAIS ARPRT LGT SNOW  19  16  86 CALM      29.61F
$$
MNZ029>031-032-039>041-046>048-054>057-064-181400-
   West Central Minnesota

CITY           SKY/WX    TMP DP  RH WIND       PRES   REMARKS
FERGUS FALLS   FAIR      19  16  86 W7        29.82S WCI  10
WHEATON        CLOUDY    28  19  69 W3        29.86S
MORRIS         CLEAR     25  19  80 W6        29.82F WCI  18
ALEXANDRIA     FAIR      30  21  69 W9        29.81F WCI  22
ELBOW LAKE     FAIR      19  17  90 W6        29.82S WCI  11
WADENA         FAIR      25  19  80 W10       29.77F WCI  15
GLENWOOD       FAIR      23  19  86 W9        29.83F WCI  13
APPLETON       CLOUDY    30  21  69 SW8       29.84F WCI  23
BENSON         CLOUDY    18  16  93 NE5       29.86R WCI  11
ORTONVILLE     CLEAR     32  19  59 W3        29.83F
MADISON        CLEAR     36  23  60 SW8       29.84F
WILLMAR        FAIR      16  12  86 CALM      29.87F
$$
MNZ033>034-036-042>043-049>051-058-059-181400-
   Central Minnesota

CITY           SKY/WX    TMP DP  RH WIND       PRES   REMARKS
ST CLOUD       FAIR      20  16  84 SW5       29.83F WCI  13
SAUK CENTRE      N/A     26  19  75 W9        29.82F WCI  17
PAYNESVILLE    FAIR      22  19  88 W9        29.84F WCI  12
AITKIN         FAIR      30  19  64 SW7       29.73S WCI  23
PINE RIVER     FAIR      27  19  74 W5        29.77F WCI  21
BRAINERD       FAIR      29  19  66 W12       29.76S WCI  19
STAPLES        FAIR      28  19  69 W14       29.76F WCI  17
LONG PRAIRIE   FAIR      27  19  74 S9        29.80F WCI  17
LITTLE FALLS   FAIR      30  16  55 W7        29.79F WCI  23
LITCHFIELD     FAIR      23  19  86 SW3       29.86F
BUFFALO        FAIR      22  17  83 S5        29.87F WCI  15
MAPLE LAKE     FAIR      21  19  89 MISG      29.86F
HUTCHINSON     FAIR      19  16  88 CALM      29.89S
$$
MNZ037-044-045-052-053-181400-
   East Central Minnesota

CITY           SKY/WX    TMP DP  RH WIND       PRES   REMARKS
PRINCETON      FAIR      25  19  80 SW5       29.82F WCI  19
MORA           FAIR      23  19  86 SW6       29.81F WCI  16
CAMBRIDGE      FAIR      25  16  68 S7        29.83F WCI  17
RUSH CITY      FAIR      23  18  81 S9        29.82F WCI  13
MOOSE LAKE     MOCLDY    25  19  80 SW9       29.73F WCI  15
HINCKLEY       FAIR      27  21  80 S10       29.78F WCI  17
CLOQUET        CLOUDY    27  19  74 SW6       29.71F WCI  20
MCGREGOR       FAIR      32  23  69 SW8       29.74S WCI  25
$$
MNZ071>073-080-081-089-090-097-098-181400-
   Southwest Minnesota

CITY           SKY/WX    TMP DP  RH WIND       PRES   REMARKS
MONTEVIDEO     CLOUDY    27  21  80 W8        29.85F WCI  18
GRANITE FALLS  CLOUDY    28  21  77 S10       29.88F WCI  18
CANBY          CLOUDY    35  23  62 SW16      29.86F WCI  25
MARSHALL       CLEAR     28  20  71 SW15      29.88F WCI  16
REDWOOD FALLS  CLOUDY    26  20  77 SW13      29.87F WCI  15
OLIVIA         CLOUDY    21  18  86 CALM      29.87F
PIPESTONE      CLOUDY    18  16  93 SW7       29.92F WCI   8
WINDOM         CLOUDY    21   7  53 SW12      29.93F WCI   9
WORTHINGTON    CLOUDY    18  14  84 SW12      29.95F WCI   5
JACKSON        CLOUDY    23  18  80 SW15      29.94F WCI  10
SLAYTON        CLOUDY    20  17  87 SW9       29.92F WCI   9
$$
MNZ065>067-074>077-082>085-091>093-181400-
   South Central Minnesota

CITY           SKY/WX    TMP DP  RH WIND       PRES   REMARKS
MANKATO        FAIR      19  15  84 S8        29.92F WCI   9
NEW ULM        CLOUDY    21  16  79 SW6       29.90S WCI  14
ST JAMES       PTCLDY    25  19  80 SW12      29.92F WCI  14
FAIRMONT       CLOUDY    22  17  81 SW7       29.96F WCI  13
GLENCOE        FAIR      23  18  80 SW3       29.89S
FARIBAULT      FAIR      21  16  79 S9        29.92S WCI  11
OWATONNA       FAIR      21  16  79 S12       29.92F WCI   9
WASECA         FAIR      19  16  86 S8        29.94F WCI   9
ALBERT LEA     FAIR      19  14  79 S7        29.94F WCI  10
$$
MNZ078>079-086>088-094>096-181400-
   Southeast Minnesota

CITY           SKY/WX    TMP DP  RH WIND       PRES   REMARKS
ROCHESTER      FAIR      18  14  84 SW13      29.93S WCI   5
RED WING       FAIR      19  14  79 W3        29.92R
STANTON        FAIR      23  17  78 SW12      29.89S WCI  12
DODGE CENTER   FAIR      18  14  86 SW16      29.91F WCI   3
WINONA         FAIR      23  14  68 CALM      29.94F
AUSTIN         FAIR      18  12  79 S7        29.95S WCI   8
PRESTON        FAIR      18  12  79 SW12      29.95F WCI   5
$$
ABBREVIATIONS USED IN REMARKS
   TC - TEMPERATURES IN CELSIUS
  WCI - WIND CHILL INDEX
   HX - HEAT INDEX
  VSB - VISIBILITY
$$




USA.gov is the U.S. government's official web portal to all federal, state and local government web resources and services.